Terminal Aerodrome Forecast
Issued by NWS

Home | Current Version | Previous Version | Text Only | Print | Product List | Glossary On
Versions: 1 2 3 4 5 6 7 8 9 10 11 12 13 14 15 16 17 18 19 20 21 22 23 24 25 26 27
427
FTUS43 KLOT 271133
TAFDPA
TAF
KDPA 271133Z 2712/2812 VRB03KT 6SM BR SCT250
      TEMPO 2712/2713 5SM BR
     FM271900 21003KT P6SM FEW050 SCT200
     FM280200 07003KT P6SM BKN200=

USA.gov is the U.S. government's official web portal to all federal, state and local government web resources and services.